Regional Weather Roundup
Issued by NWS Sioux Falls, SD

Home | Current Version | Previous Version | Text Only | Print | Product List | Glossary On
Versions: 1 2 3 4 5 6 7 8 9 10 11 12 13 14 15 16 17 18 19 20 21 22 23 24 25 26 27 28 29 30 31 32 33 34 35 36 37 38 39 40 41 42 43 44 45 46 47 48 49 50
000
ASUS43 KFSD 300110
RWRFSD

WEATHER ROUNDUP FOR SE SOUTH DAKOTA/SW MINNESOTA/NW IOWA
NATIONAL WEATHER SERVICE SIOUX FALLS SD
800 PM CDT MON MAY 29 2017

NOTE: "FAIR" INDICATES FEW OR NO CLOUDS BELOW 12,000 FEET WITH NO
SIGNIFICANT WEATHER AND OR OBSTRUCTIONS TO VISIBILITY.


SDZ038>040-050-052>070-300200-
SOUTHEAST SOUTH DAKOTA

CITY           SKY/WX    TMP DP  RH WIND       PRES   REMARKS
BROOKINGS      PTCLDY    60  43  53 N13       29.97S
CHAMBERLAIN    MOSUNNY   67  36  32 NW12      30.00S
HURON          MOSUNNY   65  37  35 N13G22    29.97S
MADISON        FAIR      59  45  58 NW12      29.98S
MITCHELL       PTCLDY    63  46  54 CALM      29.99S
SIOUX FALLS    PTCLDY    63  44  50 NW16      29.98S
WINNER         MOCLDY    66  38  35 NW10      30.03S
YANKTON        PTCLDY    65  42  43 NW12      30.01S
$$

MNZ071-072-080-081-089-090-097-098-300200-
SOUTHWEST MINNESOTA

CITY           SKY/WX    TMP DP  RH WIND       PRES   REMARKS
FAIRMONT       CLOUDY    58  52  80 NW9       29.94S
JACKSON        CLOUDY    59  45  58 NW16      29.95S
LUVERNE        CLEAR     59  37  44 NW8G16    29.98F
MARSHALL       PTCLDY    59  45  59 NW17      29.94F
MONTEVIDEO     MOCLDY    57  48  72 N6        29.93S
PIPESTONE      CLEAR     59  45  58 NW7       29.97F
REDWOOD FALLS  CLOUDY    58  45  62 NW9       29.92R
TRACY          CLOUDY    58  50  73 W6        29.95F
WINDOM         DRIZZLE   55  48  76 NW12      29.95R
WORTHINGTON    LGT RAIN  55  46  71 NW14      29.97R
$$

IAZ001>003-012>014-020>022-031-032-NEZ013-014-SDZ071-300200-
NORTHWEST IOWA

CITY           SKY/WX    TMP DP  RH WIND       PRES   REMARKS
CHEROKEE       PTCLDY    63  42  46 NW10G18   29.98R
DENISON        PTCLDY    66  41  39 NW15G24   30.00S
ESTHERVILLE    CLOUDY    58  51  78 NW12      29.94S
LE MARS        PTCLDY    64  43  45 NW13G21   29.99S
ORANGE CITY    PTCLDY    63  46  55 NW13G21   29.98S
SHELDON        CLEAR     61  43  51 NW18      29.96S
SIOUX CITY     CLEAR     65  43  44 NW20G25   29.99S
SPENCER        MOCLDY    63  44  50 NW20G28   29.96S
STORM LAKE     CLEAR     64  41  42 NW18G28   29.98R
$$

ABBREVIATIONS USED IN REMARKS
   TC - TEMPERATURE IN CELSIUS
  WCI - WIND CHILL INDEX
   HX - HEAT INDEX
  VSB - VISIBILITY





USA.gov is the U.S. government's official web portal to all federal, state and local government web resources and services.